[[{"header":{"parameterUnit":"m.s-1","parameterCategory":1,"la1":30.2991,"la2":30.254,"lo1":-89.0895,"lo2":-89.0444,"dy":0.0017,"dx":0.0017,"nx":28,"ny":28,"refTime":"2024-05-08T21:00:00:Z","depth":0,"parameterNumber":2,"parameterNumberName":"U-component_of_WINDS"},"data":[0,0,0,0,0,0,0,0,0,0,0,0,0,0,0,0,0,0,0,0,0,0,0,0,0,0,0,0,0,0,0,0,0,0,0,0,0,0,0,0,0,0,0,0,0,0,0,0,0,0,0,0,0,0,0,0,0,0,-0.4918,-0.4918,0,-0.4957,-0.4958,-0.4958,-0.4988,-0.4988,-0.4988,-0.4989,-0.5031,-0.5032,-0.5033,0,0,0,0,0,0,0,0,0,0,0,0,0,-0.487,-0.487,-0.4918,-0.4918,-0.4919,-0.4957,-0.4958,-0.4958,-0.4988,-0.4988,-0.4989,-0.4989,-0.5031,-0.5032,-0.5033,0,0,0,0,0,0,0,0,0,0,0,0,0,-0.4898,-0.4871,-0.4918,-0.4938,-0.494,-0.4957,-0.4958,-0.4959,-0.4988,-0.4988,-0.4989,-0.4989,-0.503,-0.5032,-0.5033,-0.5033,0,0,-0.5037,-0.5038,0,0,0,0,0,0,0,0,-0.4896,-0.49,-0.4934,-0.4937,-0.4939,-0.4968,-0.4957,-0.4984,-0.4988,-0.497,-0.4989,-0.4989,-0.501,-0.5013,-0.502,-0.5035,-0.5037,-0.5037,-0.5038,-0.5039,-0.5039,0,0,0,0,0,0,0,-0.4894,-0.4898,-0.4933,-0.4935,-0.4938,-0.4946,-0.495,-0.4962,-0.4987,-0.4971,-0.4974,-0.4978,-0.5011,-0.5018,-0.5021,-0.5038,-0.5037,-0.5038,-0.5039,-0.504,-0.5058,-0.5057,0,0,0,0,0,0,-0.4889,-0.4896,-0.4932,-0.4935,-0.4918,-0.4946,-0.4951,-0.4958,-0.4987,-0.4992,-0.4977,-0.4979,-0.5016,-0.5019,-0.5022,-0.5026,-0.5038,-0.504,-0.5041,-0.5058,-0.5057,-0.5057,0,0,0,0,0,0,-0.4888,-0.4892,-0.4931,-0.4916,-0.4922,-0.4947,-0.4954,-0.4959,-0.4966,-0.4992,-0.4997,-0.498,-0.5016,-0.5021,-0.5031,-0.5027,-0.504,-0.5042,-0.5058,-0.5058,-0.5057,-0.5031,0,0,0,0,0,0,-0.4886,-0.4891,-0.4891,-0.4916,-0.4922,-0.4937,-0.4954,-0.496,-0.4968,-0.497,-0.4995,-0.5,-0.5017,-0.5028,-0.5032,-0.5029,-0.5043,-0.5059,-0.5058,-0.5057,-0.5033,-0.503,-0.5028,0,0,0,0,0,-0.4884,-0.4882,-0.4891,-0.4895,-0.4922,-0.4937,-0.4941,-0.496,-0.4968,-0.4968,-0.4985,-0.4999,-0.5027,-0.5029,-0.5033,-0.5031,-0.5059,-0.5058,-0.5058,-0.5034,-0.503,-0.5028,0,0,0,0,0,0,-0.4856,-0.4886,-0.4896,-0.4901,-0.4916,-0.4942,-0.4943,-0.4956,-0.497,-0.4971,-0.4995,-0.5001,-0.5009,-0.5021,-0.5023,-0.5034,-0.5045,-0.5045,-0.5025,-0.5023,-0.502,-0.5017,-0.5044,0,0,0,0,0,-0.4851,-0.486,-0.4885,-0.4888,-0.4895,-0.4917,-0.4924,-0.4938,-0.4955,-0.4962,-0.4979,-0.4996,-0.5008,-0.5016,-0.5029,-0.5035,-0.5041,-0.5035,-0.5033,-0.5031,-0.5031,-0.5036,-0.5034,-0.5055,-0.5055,-0.5055,0,0,-0.4839,-0.4857,-0.4861,-0.4882,-0.4896,-0.4905,-0.4923,-0.4931,-0.4939,-0.4963,-0.4974,-0.4987,-0.5008,-0.5015,-0.502,-0.5026,-0.5026,-0.503,-0.5028,-0.5029,-0.5035,-0.5033,-0.5031,-0.5054,-0.5054,-0.5054,0,0,-0.4824,-0.4837,-0.4841,-0.4854,-0.4874,-0.489,-0.489,-0.4914,-0.4924,-0.4935,-0.4954,-0.4964,-0.4985,-0.4999,-0.5008,-0.4999,-0.5013,-0.5003,-0.499,-0.4995,-0.4993,-0.4992,-0.4989,-0.4988,-0.5003,-0.5002,-0.5002,0,-0.4807,-0.4821,-0.4841,-0.4849,-0.4859,-0.4881,-0.4886,-0.4898,-0.4921,-0.4928,-0.4934,-0.4962,-0.4977,-0.4989,-0.4987,-0.4994,-0.4997,-0.5,-0.4992,-0.4991,-0.499,-0.4987,-0.4986,-0.5001,-0.5001,-0.5001,-0.5002,0,-0.48,-0.481,-0.4811,-0.4833,-0.4842,-0.4848,-0.4871,-0.4878,-0.4891,-0.4906,-0.4918,-0.4937,-0.4955,-0.4959,-0.4972,-0.4973,-0.4976,-0.4987,-0.4999,-0.4986,-0.4984,-0.4984,-0.4999,-0.5,-0.5,-0.5,0,0,-0.4767,-0.4801,-0.4801,-0.4811,-0.4836,-0.4844,-0.4852,-0.4869,-0.4875,-0.4891,-0.4899,-0.4917,-0.4927,-0.4938,-0.4953,-0.4957,-0.4949,-0.4967,-0.4968,-0.4964,-0.4953,-0.4945,-0.4944,-0.4959,-0.4959,-0.4959,-0.4952,0,-0.4755,-0.477,-0.4789,-0.4798,-0.4807,-0.4829,-0.4837,-0.4853,-0.4867,-0.4878,-0.4895,-0.4907,-0.492,-0.4927,-0.4932,-0.4949,-0.4948,-0.495,-0.4967,-0.4968,-0.4962,-0.4943,-0.4934,-0.4927,-0.4951,-0.4951,-0.4951,0,-0.4743,-0.4758,-0.4767,-0.4791,-0.4796,-0.4802,-0.482,-0.483,-0.4849,-0.486,-0.4873,-0.4889,-0.4899,-0.491,-0.4925,-0.4927,-0.4935,-0.4945,-0.4945,-0.4948,-0.4958,-0.4945,-0.4925,-0.4924,-0.495,-0.495,-0.495,0,-0.4719,-0.4741,-0.4749,-0.4758,-0.4786,-0.479,-0.4802,-0.4822,-0.4831,-0.4847,-0.4854,-0.4871,-0.488,-0.4893,-0.4914,-0.492,-0.4928,-0.494,-0.4938,-0.4937,-0.4939,-0.4938,-0.4919,-0.4943,-0.4943,-0.4943,-0.4944,0,-0.4704,-0.4709,-0.4739,-0.4744,-0.4751,-0.4773,-0.478,-0.4794,-0.4812,-0.4821,-0.4841,-0.485,-0.4877,-0.4889,-0.4905,-0.4916,-0.492,-0.493,-0.4934,-0.4928,-0.4927,-0.4934,-0.4935,-0.4943,-0.4943,-0.4943,-0.4943,0,-0.4677,-0.4698,-0.4709,-0.4735,-0.4742,-0.4746,-0.4768,-0.4775,-0.4791,-0.4803,-0.4807,-0.4832,-0.4848,-0.487,-0.4892,-0.4903,-0.4912,-0.4919,-0.4905,-0.4908,-0.4905,-0.4905,-0.489,-0.4889,-0.4913,-0.4913,-0.4913,0,-0.4666,-0.4671,-0.4698,-0.4705,-0.4716,-0.4728,-0.4738,-0.4761,-0.477,-0.4793,-0.4797,-0.4814,-0.4829,-0.4853,-0.4874,-0.4891,-0.4899,-0.4892,-0.4901,-0.4896,-0.4899,-0.4899,-0.49,-0.489,-0.489,-0.4889,-0.4889,0,-0.4645,-0.4655,-0.4668,-0.4685,-0.4696,-0.471,-0.4726,-0.4731,-0.4757,-0.4767,-0.4783,-0.4794,-0.4817,-0.4834,-0.4854,-0.4868,-0.4883,-0.4886,-0.4887,-0.4881,-0.4873,-0.4878,-0.4899,-0.4886,-0.4887,-0.4887,-0.4887,-0.4887,-0.4627,-0.4632,-0.4652,-0.4666,-0.468,-0.4694,-0.4702,-0.4719,-0.4732,-0.4752,-0.4765,-0.478,-0.4801,-0.483,-0.4843,-0.4856,-0.4862,-0.4863,-0.4863,-0.4863,-0.4861,-0.487,-0.486,-0.486,-0.486,-0.486,-0.486,0,-0.4607,-0.4621,-0.4634,-0.4655,-0.4666,-0.4679,-0.4697,-0.4706,-0.4719,-0.4736,-0.4751,-0.4769,-0.4786,-0.4809,-0.4827,-0.4833,-0.4841,-0.4838,-0.4838,-0.4841,-0.4854,-0.4852,-0.4831,-0.4831,-0.4831,-0.4831,-0.4831,-0.4831,-0.4598,-0.4608,-0.4621,-0.4638,-0.4652,-0.4667,-0.4676,-0.469,-0.4704,-0.4724,-0.4738,-0.4752,-0.4772,-0.4793,-0.4809,-0.4816,-0.4822,-0.4816,-0.4825,-0.4837,-0.484,-0.4842,-0.484,-0.4817,-0.4817,-0.481,-0.481,-0.481]},{"header":{"parameterUnit":"m.s-1","parameterCategory":1,"la1":30.2991,"la2":30.254,"lo1":-89.0895,"lo2":-89.0444,"dy":0.0017,"dx":0.0017,"nx":28,"ny":28,"refTime":"2024-05-08T21:00:00:Z","depth":0,"parameterNumber":3,"parameterNumberName":"V-component_of_WINDS"},"data":[0,0,0,0,0,0,0,0,0,0,0,0,0,0,0,0,0,0,0,0,0,0,0,0,0,0,0,0,0,0,0,0,0,0,0,0,0,0,0,0,0,0,0,0,0,0,0,0,0,0,0,0,0,0,0,0,0,0,7.6115,7.6116,0,7.6217,7.6218,7.6219,7.6182,7.618,7.6177,7.6175,7.6271,7.6276,7.628,0,0,0,0,0,0,0,0,0,0,0,0,0,7.5877,7.5881,7.6114,7.6116,7.6117,7.6217,7.6218,7.622,7.6182,7.618,7.6177,7.6174,7.627,7.6275,7.6281,0,0,0,0,0,0,0,0,0,0,0,0,0,7.5979,7.5883,7.6114,7.6111,7.6111,7.6217,7.6218,7.622,7.6183,7.618,7.6176,7.6173,7.6268,7.6275,7.6282,7.6394,0,0,7.6303,7.6306,0,0,0,0,0,0,0,0,7.5974,7.5988,7.611,7.6111,7.6112,7.6183,7.617,7.6278,7.6184,7.6156,7.6175,7.6171,7.6244,7.6253,7.6279,7.6398,7.6402,7.6304,7.6308,7.6311,7.6313,0,0,0,0,0,0,0,7.5967,7.5984,7.6155,7.6112,7.6113,7.6101,7.6112,7.619,7.6217,7.6158,7.6155,7.6168,7.6244,7.6273,7.6281,7.6404,7.6304,7.631,7.6314,7.6317,7.6618,7.6621,0,0,0,0,0,0,7.596,7.5978,7.6151,7.6158,7.6033,7.6108,7.612,7.6164,7.6217,7.6222,7.6171,7.6166,7.6262,7.6273,7.6285,7.6419,7.6311,7.6318,7.6322,7.6614,7.6619,7.6623,0,0,0,0,0,0,7.5955,7.5976,7.6147,7.6067,7.6088,7.6116,7.6165,7.6168,7.6196,7.6227,7.6231,7.6196,7.626,7.6275,7.6367,7.6421,7.6321,7.6327,7.661,7.6615,7.6621,7.6688,0,0,0,0,0,0,7.5949,7.5975,7.602,7.6069,7.6093,7.6231,7.6169,7.6172,7.621,7.6204,7.6251,7.6256,7.6259,7.6357,7.6374,7.6429,7.6333,7.6605,7.6612,7.6619,7.6681,7.6695,7.6708,0,0,0,0,0,7.594,7.6033,7.6022,7.6043,7.615,7.6235,7.6248,7.6252,7.6214,7.6258,7.6278,7.6254,7.6413,7.6367,7.6386,7.6444,7.6601,7.661,7.6618,7.6675,7.6693,7.6707,0,0,0,0,0,0,7.5986,7.6039,7.6028,7.614,7.6184,7.6228,7.6284,7.627,7.6323,7.6315,7.6315,7.6326,7.6421,7.6441,7.6389,7.6554,7.6501,7.6514,7.6538,7.6555,7.6567,7.656,7.6339,0,0,0,0,0,7.601,7.6077,7.6119,7.6213,7.6236,7.6256,7.6293,7.6293,7.6336,7.6353,7.638,7.642,7.6479,7.6518,7.6574,7.6684,7.6692,7.6733,7.6746,7.6757,7.6768,7.6826,7.6844,7.6651,7.6651,7.665,0,0,7.6059,7.6096,7.6138,7.6223,7.6257,7.6323,7.6272,7.6344,7.6393,7.6363,7.6453,7.6474,7.6519,7.6621,7.6667,7.6641,7.6823,7.6768,7.6776,7.6781,7.6837,7.6855,7.6871,7.6656,7.6655,7.6654,0,0,7.6181,7.6217,7.63,7.6335,7.6388,7.6401,7.6421,7.6468,7.6481,7.6572,7.6551,7.6607,7.6709,7.6742,7.6772,7.6907,7.6886,7.6925,7.6993,7.705,7.7066,7.7079,7.7126,7.7143,7.6935,7.6935,7.6936,0,7.6234,7.6337,7.6343,7.6418,7.6455,7.6435,7.6517,7.6549,7.6616,7.6641,7.6612,7.6739,7.6768,7.6876,7.691,7.6935,7.6955,7.6919,7.7064,7.7077,7.709,7.7134,7.7152,7.694,7.6939,7.6939,7.6938,0,7.6399,7.6471,7.653,7.6599,7.6643,7.6721,7.6735,7.6778,7.6774,7.6789,7.688,7.6914,7.6976,7.7002,7.6997,7.711,7.7092,7.7063,7.701,7.7112,7.7154,7.7172,7.6946,7.6944,7.6943,7.6942,0,0,7.6554,7.6626,7.6647,7.6678,7.6734,7.6788,7.6863,7.6927,7.6964,7.701,7.7072,7.7159,7.7133,7.7167,7.7165,7.7215,7.7319,7.718,7.7181,7.7204,7.7443,7.7464,7.7484,7.7306,7.7309,7.7312,7.7439,0,7.6681,7.6818,7.6825,7.6948,7.7013,7.6994,7.7059,7.7099,7.7115,7.717,7.7186,7.7247,7.7209,7.7229,7.7278,7.7296,7.7366,7.7287,7.7361,7.7363,7.735,7.7506,7.7529,7.7648,7.7456,7.7458,7.746,0,7.6847,7.6902,7.7033,7.708,7.7107,7.7167,7.7225,7.7279,7.7323,7.733,7.7369,7.736,7.7434,7.7379,7.748,7.7426,7.7456,7.7469,7.7474,7.748,7.7418,7.7516,7.7686,7.7704,7.7487,7.7484,7.7483,0,7.6946,7.7052,7.7144,7.7171,7.7228,7.727,7.7295,7.7336,7.7374,7.7424,7.7448,7.7505,7.7536,7.7578,7.7584,7.7543,7.7685,7.763,7.7691,7.7691,7.7722,7.772,7.7898,7.7742,7.7742,7.7742,7.7741,0,7.7087,7.7167,7.719,7.7246,7.7335,7.7341,7.7427,7.7448,7.7485,7.7543,7.7528,7.7582,7.7586,7.7641,7.7645,7.7727,7.7741,7.7748,7.7748,7.7749,7.7748,7.7769,7.776,7.7747,7.7745,7.7745,7.7744,0,7.7213,7.7231,7.733,7.7377,7.739,7.7453,7.7492,7.7544,7.7559,7.7632,7.7649,7.7671,7.7734,7.7744,7.7818,7.782,7.7919,7.7911,7.7905,7.7904,7.7965,7.7959,7.8162,7.8188,7.8016,7.8018,7.8019,0,7.7301,7.7363,7.7418,7.7457,7.7485,7.7548,7.7588,7.7595,7.7635,7.769,7.7735,7.7797,7.7848,7.7949,7.797,7.8025,7.8018,7.8085,7.8026,7.8025,7.8018,7.8014,7.802,7.8096,7.8098,7.81,7.8101,0,7.7456,7.7463,7.7522,7.7584,7.7632,7.768,7.7725,7.7757,7.777,7.7816,7.7882,7.7922,7.7998,7.8059,7.8115,7.8136,7.812,7.812,7.8137,7.8138,7.8133,7.8136,7.7936,7.8115,7.8113,7.8112,7.8112,7.8111,7.7566,7.762,7.7667,7.7732,7.7768,7.7811,7.7863,7.7885,7.7941,7.8006,7.8006,7.8078,7.8118,7.8191,7.8217,7.8272,7.8249,7.8274,7.828,7.8286,7.8292,7.8125,7.8282,7.8281,7.8281,7.828,7.828,0,7.772,7.7749,7.781,7.7876,7.7926,7.791,7.7959,7.8002,7.8067,7.8107,7.8158,7.8233,7.8293,7.8318,7.8376,7.8414,7.8408,7.8429,7.8426,7.8431,7.8309,7.8288,7.8433,7.8433,7.8433,7.8433,7.8433,7.8433,7.7806,7.7896,7.7908,7.8015,7.8042,7.8116,7.8145,7.8184,7.8216,7.8302,7.8353,7.837,7.8404,7.8463,7.8516,7.8522,7.8543,7.8567,7.857,7.8455,7.844,7.8425,7.8405,7.8572,7.8572,7.8687,7.8688,7.8689]}]]